TRA66 LFPO-LFMP

Flight info

Callsign TRA66
Flight time 1h 4m
Altitude 39000
Route ERIXU DCT ETAMO DCT ADEKA DCT MOKDI DCT MEN DCT BADAM DCT NEKTA DCT SIJAN
Aircraft B738/M-SDE2E3FGHIRWXY/LB1

Departure

Time 2026-04-26 05:59
Airport Paris-Orly Airport (LFPO)

Arrival

Time 2026-04-26 07:04
Airport Perpignan-Rivesaltes (Llabanère) Airport (LFMP)
Time Latitude Longitude Altitude Speed Heading
2026-04-26 05:45 48.72567 2.36133 295 ft 0 kts 348°
2026-04-26 05:51 48.72559 2.36136 300 ft 2 kts 348°
2026-04-26 05:51 48.72543 2.36141 293 ft 2 kts 348°
2026-04-26 05:51 48.72527 2.36145 294 ft 2 kts 348°
2026-04-26 05:52 48.72511 2.36151 294 ft 2 kts 332°
2026-04-26 05:52 48.72499 2.36167 295 ft 2 kts 276°
2026-04-26 05:52 48.72499 2.36180 294 ft 1 kts 252°
2026-04-26 05:52 48.72500 2.36184 294 ft 0 kts 251°
2026-04-26 05:54 48.72500 2.36183 289 ft 0 kts 251°
2026-04-26 05:55 48.72499 2.36179 289 ft 0 kts 251°
2026-04-26 05:55 48.72492 2.36144 289 ft 9 kts 253°
2026-04-26 05:55 48.72472 2.36020 291 ft 13 kts 259°
2026-04-26 05:55 48.72473 2.35881 289 ft 13 kts 277°
2026-04-26 05:56 48.72475 2.35745 291 ft 13 kts 257°
2026-04-26 05:56 48.72430 2.35631 291 ft 13 kts 197°
2026-04-26 05:56 48.72332 2.35630 289 ft 15 kts 197°
2026-04-26 05:56 48.72230 2.35595 289 ft 15 kts 182°
2026-04-26 05:57 48.72130 2.35636 293 ft 15 kts 163°
2026-04-26 05:57 48.72048 2.35714 291 ft 15 kts 127°
2026-04-26 05:57 48.71988 2.35860 293 ft 17 kts 118°
2026-04-26 05:57 48.71967 2.35997 290 ft 0 kts 76°
2026-04-26 05:59 48.72011 2.36252 292 ft 63 kts 73°
2026-04-26 05:59 48.72197 2.37256 287 ft 133 kts 74°
2026-04-26 05:59 48.72504 2.38819 538 ft 167 kts 72°
2026-04-26 05:59 48.72811 2.40478 1497 ft 163 kts 74°
2026-04-26 06:00 48.73107 2.42108 2395 ft 159 kts 74°
2026-04-26 06:00 48.73426 2.43861 2901 ft 187 kts 73°
2026-04-26 06:00 48.73799 2.45888 3154 ft 215 kts 73°
2026-04-26 06:00 48.74130 2.48215 3446 ft 238 kts 83°
2026-04-26 06:01 48.74232 2.50835 3844 ft 257 kts 87°
2026-04-26 06:01 48.74296 2.53550 4643 ft 263 kts 87°
2026-04-26 06:01 48.74243 2.56323 5472 ft 268 kts 102°
2026-04-26 06:01 48.73432 2.58868 6291 ft 273 kts 129°
2026-04-26 06:02 48.71910 2.60618 7098 ft 279 kts 155°
2026-04-26 06:02 48.70030 2.61388 7891 ft 282 kts 170°
2026-04-26 06:02 48.68073 2.61856 8681 ft 287 kts 171°
2026-04-26 06:02 48.66087 2.62262 9477 ft 291 kts 178°
2026-04-26 06:03 48.64126 2.61703 10226 ft 294 kts 205°
2026-04-26 06:03 48.62427 2.59893 10715 ft 307 kts 227°
2026-04-26 06:03 48.60980 2.57348 10911 ft 330 kts 232°
2026-04-26 06:03 48.59502 2.54549 11208 ft 348 kts 232°
2026-04-26 06:04 48.57992 2.51695 11787 ft 354 kts 232°
2026-04-26 06:04 48.56430 2.48800 12561 ft 357 kts 231°
2026-04-26 06:04 48.54842 2.45904 13066 ft 359 kts 231°
2026-04-26 06:04 48.53238 2.42999 13241 ft 362 kts 230°
2026-04-26 06:05 48.51371 2.40432 13468 ft 369 kts 213°
2026-04-26 06:05 48.49151 2.38472 14352 ft 368 kts 210°
2026-04-26 06:05 48.46959 2.36593 15145 ft 369 kts 210°
2026-04-26 06:05 48.44714 2.34659 15828 ft 374 kts 211°
2026-04-26 06:06 48.42445 2.32686 16505 ft 379 kts 211°
2026-04-26 06:06 48.40148 2.30673 17195 ft 383 kts 211°
2026-04-26 06:06 48.37862 2.28662 17875 ft 388 kts 211°
2026-04-26 06:06 48.35520 2.26599 18539 ft 392 kts 211°
2026-04-26 06:07 48.33153 2.24518 19120 ft 396 kts 211°
2026-04-26 06:07 48.30741 2.22487 19716 ft 400 kts 205°
2026-04-26 06:07 48.28033 2.21429 20288 ft 406 kts 185°
2026-04-26 06:07 48.25206 2.21699 20884 ft 410 kts 172°
2026-04-26 06:08 48.22379 2.22420 21443 ft 414 kts 171°
2026-04-26 06:08 48.19527 2.23193 21950 ft 419 kts 171°
2026-04-26 06:08 48.16686 2.23943 22455 ft 424 kts 171°
2026-04-26 06:08 48.13795 2.24672 22982 ft 427 kts 172°
2026-04-26 06:09 48.10820 2.25396 23507 ft 431 kts 172°
2026-04-26 06:09 48.07842 2.26096 23974 ft 435 kts 174°
2026-04-26 06:09 48.04859 2.26511 24402 ft 438 kts 178°
2026-04-26 06:09 48.01802 2.26713 24864 ft 440 kts 179°
2026-04-26 06:10 47.98740 2.26832 25309 ft 442 kts 180°
2026-04-26 06:10 47.95646 2.26943 25731 ft 445 kts 179°
2026-04-26 06:10 47.92538 2.27074 26133 ft 448 kts 179°
2026-04-26 06:10 47.89414 2.27230 26545 ft 451 kts 179°
2026-04-26 06:11 47.86254 2.27409 26942 ft 454 kts 179°
2026-04-26 06:11 47.83081 2.27603 27339 ft 457 kts 178°
2026-04-26 06:11 47.79899 2.27804 27725 ft 459 kts 178°
2026-04-26 06:11 47.76738 2.28007 28095 ft 462 kts 178°
2026-04-26 06:12 47.73556 2.28211 28462 ft 465 kts 178°
2026-04-26 06:12 47.70316 2.28419 28813 ft 467 kts 178°
2026-04-26 06:12 47.67057 2.28627 29169 ft 470 kts 178°
2026-04-26 06:12 47.63787 2.28834 29495 ft 472 kts 178°
2026-04-26 06:13 47.60489 2.29043 29828 ft 475 kts 178°
2026-04-26 06:13 47.57227 2.29249 30147 ft 477 kts 178°
2026-04-26 06:13 47.53901 2.29458 30431 ft 479 kts 178°
2026-04-26 06:13 47.50574 2.29667 30712 ft 481 kts 178°
2026-04-26 06:14 47.47223 2.29878 31051 ft 481 kts 178°
2026-04-26 06:14 47.43887 2.30087 31471 ft 478 kts 178°
2026-04-26 06:14 47.40582 2.30294 31893 ft 476 kts 178°
2026-04-26 06:14 47.37258 2.30503 32267 ft 476 kts 178°
2026-04-26 06:15 47.33951 2.30709 32603 ft 476 kts 178°
2026-04-26 06:15 47.30658 2.30915 32954 ft 475 kts 178°
2026-04-26 06:15 47.27348 2.31121 33358 ft 473 kts 178°
2026-04-26 06:15 47.24063 2.31326 33737 ft 472 kts 178°
2026-04-26 06:16 47.20779 2.31530 34082 ft 472 kts 178°
2026-04-26 06:16 47.17502 2.31733 34380 ft 471 kts 178°
2026-04-26 06:16 47.14228 2.31936 34651 ft 471 kts 178°
2026-04-26 06:16 47.10958 2.32139 34952 ft 470 kts 178°
2026-04-26 06:17 47.07687 2.32341 35263 ft 469 kts 178°
2026-04-26 06:17 47.04474 2.32540 35538 ft 469 kts 178°
2026-04-26 06:17 47.01217 2.32741 35806 ft 468 kts 178°
2026-04-26 06:17 46.97958 2.32942 36080 ft 468 kts 178°
2026-04-26 06:18 46.94703 2.33143 36361 ft 467 kts 179°
2026-04-26 06:18 46.91466 2.33342 36623 ft 466 kts 179°
2026-04-26 06:18 46.88213 2.33581 36890 ft 466 kts 175°
2026-04-26 06:18 46.85024 2.34433 37147 ft 466 kts 165°
2026-04-26 06:19 46.81964 2.36003 37406 ft 466 kts 156°
2026-04-26 06:19 46.79143 2.38196 37619 ft 466 kts 147°
2026-04-26 06:19 46.76465 2.40746 37861 ft 466 kts 146°
2026-04-26 06:19 46.73778 2.43368 38094 ft 465 kts 146°
2026-04-26 06:20 46.71087 2.46002 38329 ft 465 kts 146°
2026-04-26 06:20 46.68444 2.48569 38560 ft 464 kts 147°
2026-04-26 06:20 46.65746 2.51164 38797 ft 464 kts 147°
2026-04-26 06:20 46.63048 2.53740 38985 ft 463 kts 147°
2026-04-26 06:21 46.60349 2.56301 39135 ft 463 kts 147°
2026-04-26 06:21 46.54914 2.61435 39181 ft 467 kts 147°
2026-04-26 06:22 46.49517 2.66521 39183 ft 463 kts 147°
2026-04-26 06:22 46.44120 2.71598 39180 ft 460 kts 147°
2026-04-26 06:23 46.38758 2.76630 39183 ft 458 kts 148°
2026-04-26 06:23 46.33412 2.81636 39192 ft 456 kts 148°
2026-04-26 06:24 46.29023 2.85736 39190 ft 455 kts 148°
2026-04-26 06:24 46.23699 2.90700 39188 ft 456 kts 148°
2026-04-26 06:25 46.18365 2.95662 39195 ft 456 kts 148°
2026-04-26 06:25 46.13018 3.00624 39193 ft 458 kts 148°
2026-04-26 06:26 46.07648 3.05596 39196 ft 459 kts 148°
2026-04-26 06:26 46.02270 3.10566 39197 ft 460 kts 148°
2026-04-26 06:27 45.96820 3.15405 39194 ft 460 kts 156°
2026-04-26 06:27 45.90735 3.17948 39205 ft 456 kts 175°
2026-04-26 06:28 45.84465 3.18039 39210 ft 454 kts 183°
2026-04-26 06:28 45.78147 3.17843 39210 ft 454 kts 182°
2026-04-26 06:29 45.71825 3.17700 39214 ft 454 kts 182°
2026-04-26 06:29 45.65499 3.17605 39209 ft 455 kts 182°
2026-04-26 06:30 45.59167 3.17524 39198 ft 455 kts 182°
2026-04-26 06:30 45.52834 3.17444 39186 ft 455 kts 182°
2026-04-26 06:31 45.46621 3.17363 39181 ft 454 kts 182°
2026-04-26 06:31 45.40301 3.17280 39183 ft 453 kts 182°
2026-04-26 06:32 45.33986 3.17198 39185 ft 453 kts 182°
2026-04-26 06:32 45.27703 3.17115 39181 ft 453 kts 182°
2026-04-26 06:33 45.21426 3.17034 39179 ft 453 kts 182°
2026-04-26 06:33 45.15176 3.16952 39180 ft 452 kts 182°
2026-04-26 06:34 45.08882 3.16871 39185 ft 452 kts 182°
2026-04-26 06:34 45.02582 3.16789 39183 ft 452 kts 182°
2026-04-26 06:35 44.96295 3.16708 39191 ft 452 kts 182°
2026-04-26 06:35 44.90003 3.16621 39180 ft 452 kts 182°
2026-04-26 06:36 44.83719 3.16528 39189 ft 452 kts 182°
2026-04-26 06:36 44.77456 3.16438 39185 ft 452 kts 182°
2026-04-26 06:37 44.71150 3.16348 39184 ft 453 kts 182°
2026-04-26 06:37 44.64820 3.16257 38795 ft 460 kts 182°
2026-04-26 06:37 44.61610 3.16211 38220 ft 459 kts 182°
2026-04-26 06:38 44.58429 3.16194 37674 ft 456 kts 181°
2026-04-26 06:38 44.55270 3.16238 37107 ft 454 kts 181°
2026-04-26 06:38 44.52110 3.16307 36522 ft 452 kts 181°
2026-04-26 06:38 44.48967 3.16381 35901 ft 452 kts 181°
2026-04-26 06:39 44.45821 3.16450 35239 ft 452 kts 181°
2026-04-26 06:39 44.42673 3.16512 34577 ft 453 kts 182°
2026-04-26 06:39 44.39554 3.16569 33866 ft 454 kts 182°
2026-04-26 06:39 44.36344 3.16626 33087 ft 455 kts 182°
2026-04-26 06:40 44.33243 3.16679 32640 ft 449 kts 182°
2026-04-26 06:40 44.30129 3.16734 32101 ft 445 kts 182°
2026-04-26 06:40 44.27046 3.16786 31610 ft 441 kts 182°
2026-04-26 06:40 44.23986 3.16839 31123 ft 437 kts 182°
2026-04-26 06:41 44.20959 3.16891 30655 ft 433 kts 182°
2026-04-26 06:41 44.17956 3.16942 30164 ft 429 kts 182°
2026-04-26 06:41 44.14980 3.16992 29630 ft 425 kts 182°
2026-04-26 06:41 44.12043 3.17043 29149 ft 420 kts 182°
2026-04-26 06:42 44.09149 3.16937 28667 ft 413 kts 189°
2026-04-26 06:42 44.06356 3.16233 28339 ft 401 kts 199°
2026-04-26 06:42 44.03718 3.15090 27966 ft 398 kts 200°
2026-04-26 06:42 44.01056 3.13886 27519 ft 405 kts 200°
2026-04-26 06:43 43.98377 3.12674 27017 ft 404 kts 200°
2026-04-26 06:43 43.95748 3.11500 26533 ft 400 kts 200°
2026-04-26 06:43 43.93072 3.10320 26059 ft 397 kts 200°
2026-04-26 06:43 43.90485 3.09187 25594 ft 394 kts 200°
2026-04-26 06:44 43.87878 3.08051 25128 ft 391 kts 200°
2026-04-26 06:44 43.85293 3.06927 24668 ft 388 kts 200°
2026-04-26 06:44 43.82728 3.05812 24210 ft 386 kts 200°
2026-04-26 06:44 43.80174 3.04702 23744 ft 384 kts 200°
2026-04-26 06:45 43.77626 3.03597 23186 ft 382 kts 200°
2026-04-26 06:45 43.75088 3.02554 22701 ft 380 kts 195°
2026-04-26 06:45 43.72474 3.01969 22223 ft 379 kts 189°
2026-04-26 06:45 43.69853 3.01557 21738 ft 377 kts 188°
2026-04-26 06:46 43.67255 3.01172 21279 ft 374 kts 188°
2026-04-26 06:46 43.64705 3.00793 20827 ft 372 kts 188°
2026-04-26 06:46 43.62137 3.00403 20378 ft 370 kts 188°
2026-04-26 06:46 43.59581 3.00007 19929 ft 368 kts 188°
2026-04-26 06:47 43.57045 2.99609 19492 ft 367 kts 188°
2026-04-26 06:47 43.54503 2.99205 19043 ft 369 kts 188°
2026-04-26 06:47 43.51970 2.98801 18586 ft 370 kts 188°
2026-04-26 06:47 43.49515 2.98410 18112 ft 368 kts 188°
2026-04-26 06:48 43.46977 2.98006 17617 ft 366 kts 188°
2026-04-26 06:48 43.44444 2.97604 17152 ft 364 kts 187°
2026-04-26 06:48 43.41937 2.97206 16710 ft 362 kts 187°
2026-04-26 06:48 43.39441 2.96809 16258 ft 360 kts 188°
2026-04-26 06:49 43.36957 2.96415 15817 ft 357 kts 188°
2026-04-26 06:49 43.34488 2.96024 15390 ft 356 kts 188°
2026-04-26 06:49 43.32040 2.95635 14953 ft 354 kts 188°
2026-04-26 06:49 43.29595 2.95248 14522 ft 353 kts 188°
2026-04-26 06:50 43.27155 2.94862 14071 ft 352 kts 188°
2026-04-26 06:50 43.24736 2.94480 13607 ft 351 kts 188°
2026-04-26 06:50 43.22297 2.94096 13141 ft 350 kts 188°
2026-04-26 06:50 43.19912 2.93790 12696 ft 349 kts 181°
2026-04-26 06:51 43.17502 2.94264 12167 ft 351 kts 168°
2026-04-26 06:51 43.12785 2.95894 11266 ft 348 kts 166°
2026-04-26 06:51 43.10443 2.96711 10840 ft 347 kts 166°
2026-04-26 06:52 43.08122 2.97502 10603 ft 339 kts 166°
2026-04-26 06:52 43.05853 2.98263 10363 ft 332 kts 167°
2026-04-26 06:52 43.03640 2.98997 10210 ft 323 kts 167°
2026-04-26 06:52 43.01477 2.99708 10064 ft 312 kts 167°
2026-04-26 06:53 42.99418 3.00382 9943 ft 294 kts 167°
2026-04-26 06:53 42.97448 3.01027 9522 ft 290 kts 166°
2026-04-26 06:53 42.95500 3.01663 9236 ft 287 kts 167°
2026-04-26 06:53 42.93558 3.02297 8926 ft 287 kts 167°
2026-04-26 06:54 42.91643 3.02921 8633 ft 286 kts 167°
2026-04-26 06:54 42.89699 3.03555 8332 ft 287 kts 166°
2026-04-26 06:54 42.87767 3.04192 8018 ft 286 kts 166°
2026-04-26 06:54 42.85835 3.04894 7733 ft 287 kts 165°
2026-04-26 06:55 42.83911 3.05619 7409 ft 287 kts 164°
2026-04-26 06:55 42.81995 3.06342 7108 ft 286 kts 164°
2026-04-26 06:55 42.80092 3.07057 6813 ft 280 kts 164°
2026-04-26 06:55 42.78234 3.07753 6525 ft 274 kts 165°
2026-04-26 06:56 42.76419 3.08429 6232 ft 268 kts 165°
2026-04-26 06:56 42.74652 3.09086 6110 ft 258 kts 165°
2026-04-26 06:56 42.72972 3.09710 5990 ft 250 kts 165°
2026-04-26 06:56 42.71313 3.10325 5881 ft 243 kts 165°
2026-04-26 06:57 42.69681 3.10859 5690 ft 242 kts 172°
2026-04-26 06:57 42.67999 3.11076 5460 ft 240 kts 176°
2026-04-26 06:57 42.66337 3.11236 5243 ft 234 kts 176°
2026-04-26 06:57 42.64764 3.11399 5002 ft 220 kts 175°
2026-04-26 06:58 42.63283 3.11562 4767 ft 207 kts 175°
2026-04-26 06:58 42.61899 3.11712 4591 ft 199 kts 179°
2026-04-26 06:58 42.60577 3.11242 4394 ft 200 kts 217°
2026-04-26 06:58 42.59745 3.09774 4291 ft 199 kts 254°
2026-04-26 06:59 42.59499 3.07904 4128 ft 204 kts 266°
2026-04-26 06:59 42.59377 3.05999 3910 ft 202 kts 267°
2026-04-26 06:59 42.59263 3.04111 3703 ft 200 kts 268°
2026-04-26 06:59 42.59146 3.02242 3504 ft 199 kts 268°
2026-04-26 07:00 42.59233 3.00399 3256 ft 195 kts 297°
2026-04-26 07:00 42.60121 2.99115 3093 ft 185 kts 326°
2026-04-26 07:00 42.61179 2.98127 2879 ft 185 kts 327°
2026-04-26 07:00 42.62266 2.97189 2677 ft 184 kts 328°
2026-04-26 07:01 42.63328 2.96300 2526 ft 181 kts 328°
2026-04-26 07:01 42.64412 2.95392 2284 ft 183 kts 328°
2026-04-26 07:01 42.65481 2.94498 2052 ft 176 kts 327°
2026-04-26 07:01 42.66496 2.93646 1813 ft 168 kts 327°
2026-04-26 07:02 42.67462 2.92837 1599 ft 159 kts 327°
2026-04-26 07:02 42.68348 2.92098 1533 ft 136 kts 327°
2026-04-26 07:02 42.69143 2.91429 1325 ft 138 kts 327°
2026-04-26 07:02 42.69947 2.90757 1056 ft 134 kts 327°
2026-04-26 07:03 42.70754 2.90080 856 ft 136 kts 326°
2026-04-26 07:03 42.71553 2.89410 694 ft 134 kts 326°
2026-04-26 07:03 42.72357 2.88744 472 ft 136 kts 326°
2026-04-26 07:03 42.73150 2.88073 305 ft 133 kts 324°
2026-04-26 07:04 42.73941 2.87409 146 ft 129 kts 325°
2026-04-26 07:04 42.74536 2.86908 142 ft 37 kts 328°
2026-04-26 07:04 42.74754 2.86724 140 ft 37 kts 328°
2026-04-26 07:04 42.74903 2.86603 140 ft 23 kts 329°
2026-04-26 07:05 42.74974 2.86432 140 ft 20 kts 275°
2026-04-26 07:05 42.74884 2.86359 140 ft 19 kts 150°
2026-04-26 07:05 42.74780 2.86444 140 ft 0 kts 149°